Location: Burkes Observatory
(44.7598°N, 69.4315°W)
Time: 02:42:59
(UTC-05:00)

Daily predictions for brighter satellites

Satellite Brightness Start Highest point End
(mag) Time Altitude Azimuth Time Altitude Azimuth Time Altitude Azimuth
ATLAS 2AS CENTAUR R/B 4.4 02:22:21 29° N 02:22:21 29° N 02:27:37 10° NNE
Cosmos 1697 Rocket 3.9 03:01:19 37° ENE 03:01:19 37° ENE 03:05:12 10° NE
SJ 16-02 4.0 03:02:14 17° E 03:02:14 17° E 03:04:40 10° NE
CZ-3 R/B 4.2 03:05:09 42° SSW 03:08:45 45° SSW 03:18:52 10° ESE
COSMOS 2455 3.7 03:24:32 24° N 03:27:57 47° NE 03:33:44 10° SE
ADEOS II 3.6 03:27:31 10° N 03:29:58 28° N 03:29:58 28° N
CZ-4B R/B 4.5 03:29:57 10° NNE 03:35:02 38° E 03:39:48 12° SSE
Cosmos 2263 Rocket 4.2 03:39:24 10° N 03:44:09 27° NE 03:48:54 10° ESE
Cosmos 1934 Rocket 4.3 03:43:58 17° S 03:48:57 68° E 03:55:17 10° NNE
Meteor 2-10 Rocket 3.5 03:49:00 74° E 03:49:00 74° E 03:53:58 10° NNE
EXPRESS MD2 4.2 03:50:52 54° E 03:50:52 54° E 03:55:52 10° ESE
CZ-4B DEB 4.5 03:49:46 10° NNE 03:55:14 65° ESE 03:58:27 25° S
Cosmos 2360 4.4 03:54:32 48° S 03:56:06 71° ESE 04:01:49 10° NNE
Cosmos 2278 4.3 03:59:32 41° NNW 03:59:32 41° NNW 04:04:04 10° NNE
Okean O Rocket 1.7 03:56:27 10° NNE 04:00:54 75° ESE 04:01:01 75° ESE
Cosmos 1656 4.4 04:02:27 37° NNW 04:02:27 37° NNW 04:06:32 10° NNE
Cosmos 2123 Rocket 4.0 03:56:27 10° N 04:02:43 82° E 04:08:59 10° S
Cosmos 2322 Rocket 4.0 04:00:18 10° SSE 04:05:08 30° ESE 04:10:01 10° NE
Cosmos 158 Rocket 4.2 04:08:59 50° SSW 04:08:59 50° SSW 04:12:57 10° S
Cosmos 1980 Rocket 2.1 04:12:53 48° SW 04:14:31 80° WNW 04:20:13 10° NNE
Cosmos 2227 4.1 04:08:55 10° NNW 04:14:35 88° ENE 04:20:12 10° SSE
Cosmos 1821 Rocket 3.9 04:13:54 46° SW 04:15:26 58° WNW 04:21:38 10° N
Cosmos 405 3.7 04:13:26 10° N 04:16:57 54° ENE 04:20:27 10° SSE
ATLAS 5 CENTAUR R/B 2.6 04:18:04 23° S 04:20:37 46° ESE 04:25:22 10° NE
PAYLOAD B 4.1 04:15:19 10° NNE 04:20:50 77° WNW 04:24:11 25° SSW
Cosmos 2242 Rocket 4.3 04:21:40 10° S 04:26:08 56° E 04:30:38 10° NNE
Cosmos 1535 Rocket 4.5 04:25:30 30° SW 04:28:20 54° WNW 04:34:20 10° N
Cosmos 1048 Rocket 3.8 04:24:57 10° NNW 04:30:03 65° WSW 04:35:06 10° S
Meteor 2-17 Rocket 4.3 04:28:06 10° S 04:34:10 83° W 04:40:18 10° N
Cosmos 372 Rocket 3.8 04:32:35 31° SW 04:35:03 69° WNW 04:40:12 10° NNE
IDEFIX/ARIANE 42P 3.3 04:31:08 10° NNE 04:36:16 55° E 04:41:22 10° S
SJ 16-02 1.5 04:39:17 44° W 04:39:58 48° WNW 04:44:16 10° N
BREEZE-M DEB (TANK) 2.6 04:39:13 43° NW 04:40:10 73° NNE 04:47:35 10° ESE
Cosmos 1733 Rocket 3.0 04:36:49 10° N 04:41:13 87° E 04:45:38 10° S
Cosmos 1441 Rocket 3.4 04:38:57 10° S 04:42:56 78° E 04:46:56 10° NNE
Cosmos 1697 Rocket 3.5 04:43:05 29° WNW 04:44:00 31° NW 04:48:58 10° N
USA 215 4.5 04:40:58 10° SSW 04:45:00 20° SW 04:45:00 20° SW
Cosmos 1862 Rocket 3.7 04:41:59 10° S 04:46:19 76° E 04:50:44 10° NNE
Cosmos 1125 Rocket 3.6 04:46:13 24° SW 04:49:13 54° WNW 04:54:20 10° NNE
Meteor 1-31 Rocket 3.2 04:47:27 10° N 04:51:03 37° WNW 04:51:26 36° W
SL-16 R/B 2.4 04:46:20 10° SSW 04:51:58 72° ESE 04:57:38 10° NNE
Cosmos 1933 3.7 04:52:46 29° WSW 04:54:12 41° WNW 04:58:04 10° N
COSMO-SKYMED 1 2.5 04:51:58 10° S 04:56:18 81° WSW 05:00:40 10° NNW
MTI 4.0 04:55:21 10° SSE 04:58:30 69° ENE 05:01:41 10° N
OPS 8737 4.4 04:56:55 18° SW 04:59:32 88° SE 05:02:54 10° NE
CZ-2C R/B 3.0 04:55:59 10° NNE 05:01:04 65° E 05:06:13 10° S
Okean-O 2.8 04:56:40 10° NNE 05:01:08 74° ESE 05:05:32 10° S
Cosmos 1605 Rocket 4.1 04:55:13 10° SSW 05:01:08 51° WNW 05:07:05 10° N
Cosmos 1782 3.8 05:01:01 10° S 05:04:55 51° E 05:08:51 10° NNE
Aureole 3 2.5 05:02:51 10° NNW 05:05:49 77° W 05:08:59 10° S
Cosmos 2100 Rocket 4.1 05:02:13 10° S 05:08:20 79° E 05:14:31 10° N
CZ-2C R/B 4.1 05:06:59 10° S 05:11:24 42° W 05:15:47 10° NNW
COSMOS 2455 3.5 05:08:22 10° NW 05:13:42 33° WSW 05:19:00 10° S
Meteor 1-26 Rocket 4.3 05:08:03 10° SSW 05:13:53 65° WNW 05:19:40 10° N
CZ-4B R/B 3.9 05:10:41 10° N 05:15:30 33° WNW 05:20:22 10° SW
Geosat 4.2 05:11:08 10° SE 05:16:09 75° ENE 05:21:11 10° NNW
Cosmos 1606 2.7 05:14:27 10° S 05:18:16 86° E 05:22:05 10° N
Feng Yun 1-1 Rocket 4.2 05:14:00 10° N 05:19:33 73° WNW 05:25:14 10° SSW
Cosmos 494 Rocket 4.0 05:17:23 10° NNW 05:22:25 59° WSW 05:27:25 10° S
Cosmos 1633 2.6 05:19:36 10° NNW 05:23:13 58° W 05:26:48 10° S
Cosmos 1437 Rocket 2.8 05:20:42 10° N 05:24:47 87° ENE 05:28:46 10° S
Meteor 1-20 Rocket 4.3 05:21:01 10° NNW 05:26:49 65° W 05:32:29 10° S
Cosmos 2263 Rocket 2.3 05:22:53 10° NNW 05:28:26 55° WSW 05:33:57 10° S
Cosmos 1459 Rocket 4.0 05:23:52 10° SSW 05:30:08 78° W 05:36:32 10° N
Cosmos 2173 Rocket 3.9 05:27:29 10° SSW 05:33:39 74° W 05:39:48 10° N
Cosmos 2016 Rocket 4.2 05:28:19 10° S 05:34:38 83° E 05:41:03 10° N
Cosmos 1782 Rocket 3.6 05:31:54 10° N 05:36:16 83° E 05:40:36 10° S
Okean O Rocket 3.4 05:34:34 10° NNW 05:36:41 13° WNW 05:38:28 11° W
Cosmos 405 Rocket 3.9 05:36:23 10° SW 05:39:33 23° WNW 05:42:42 10° NNW
Meteor 1-10 Rocket 4.3 05:34:45 10° S 05:40:18 82° E 05:45:52 10° NNE
Cosmos 1802 Rocket 4.0 05:35:12 10° SSW 05:41:35 76° W 05:47:55 10° N
Cosmos 2061 Rocket 4.0 05:36:07 10° SSW 05:42:18 74° W 05:48:32 10° N
Radarsat Rocket 4.0 05:36:43 10° N 05:42:29 63° WNW 05:48:34 10° SSW
Cosmos 2084 3.9 05:39:33 10° NNW 05:43:17 54° NE 05:47:04 10° SE
Cosmos 1484 Rocket 3.2 05:39:38 10° NNE 05:43:39 72° ESE 05:47:38 10° S
PAYLOAD A 4.5 05:43:37 10° N 05:47:57 35° WNW 05:52:23 10° SW
Cosmos 2322 Rocket 2.6 05:43:32 10° SW 05:48:58 45° WNW 05:54:28 10° NNE
Meteor 2-6 Rocket 4.1 05:45:43 10° SSW 05:51:13 84° W 05:56:39 10° N
Iridium 2 3.6 05:47:34 10° S 05:51:24 75° W 05:55:16 10° N
Cosmos 1844 Rocket 3.5 05:46:05 10° NNW 05:51:38 54° ENE 05:57:10 10° SE
Sich 1 Rocket 3.8 05:49:01 10° NNW 05:53:15 49° W 05:57:29 10° SSW
ISS -1.3 05:52:09 10° S 05:54:48 23° SE 05:57:26 10° E
Cosmos 2360 Rocket 2.2 05:50:43 10° SSW 05:56:23 85° WNW 06:02:06 10° NNE
